• In Belarus
  • List of Countries
  • For 7 days
  • Water Temperature
  • Satellite Maps
  • Weather Map
  • Weather Widgets
  • user-avatar
    Login

    Hourly Weather Nizwa

    Today, 16 October, Tuesday

    Time Temperature Precipitation Wind Pressure Humidity
    00:00 +28°C° 0 mm 1 mps 697 mmHg 33%
    01:00 +27°C° 0 mm 1 mps 697 mmHg 35%
    02:00 +27°C° 0 mm 1 mps 697 mmHg 36%
    03:00 +26°C° 0 mm 1 mps 697 mmHg 38%
    04:00 +26°C° 0 mm 1 mps 696 mmHg 39%
    05:00 +26°C° 0 mm 1 mps 697 mmHg 38%
    06:00 +27°C° 0 mm 1 mps 697 mmHg 37%
    07:00 +27°C° 0 mm 1 mps 697 mmHg 36%
    08:00 +28°C° 0 mm 1 mps 697 mmHg 32%
    09:00 +27°C° 0 mm 0 mps 698 mmHg 28%
    10:00 +29°C° 0 mm 0 mps 698 mmHg 23%
    11:00 +31°C° 0 mm 1 mps 698 mmHg 21%
    12:00 +32°C° 0 mm 1 mps 698 mmHg 19%
    13:00 +33°C° 0 mm 1 mps 697 mmHg 16%
    14:00 +34°C° 0 mm 2 mps 697 mmHg 16%
    15:00 +34°C° 0 mm 2 mps 697 mmHg 16%
    16:00 +34°C° 0 mm 2 mps 697 mmHg 16%
    17:00 +34°C° 0 mm 2 mps 697 mmHg 19%
    18:00 +32°C° 0 mm 2 mps 697 mmHg 22%
    19:00 +31°C° 0 mm 2 mps 697 mmHg 25%
    20:00 +30°C° 0 mm 2 mps 697 mmHg 27%
    21:00 +29°C° 0 mm 2 mps 697 mmHg 30%
    22:00 +29°C° 0 mm 2 mps 697 mmHg 32%
    23:00 +28°C° 0 mm 2 mps 697 mmHg 36%

    Tomorrow, 17 October, Wednesday

    Time Temperature Precipitation Wind Pressure Humidity
    00:00 +28°C° 0 mm 2 mps 697 mmHg 39%
    01:00 +27°C° 0 mm 2 mps 697 mmHg 43%
    02:00 +27°C° 0 mm 2 mps 697 mmHg 45%
    03:00 +27°C° 0 mm 2 mps 696 mmHg 47%
    04:00 +26°C° 0 mm 1 mps 696 mmHg 49%
    05:00 +26°C° 0 mm 1 mps 696 mmHg 49%
    06:00 +26°C° 0 mm 1 mps 697 mmHg 50%
    07:00 +26°C° 0 mm 1 mps 697 mmHg 50%
    08:00 +27°C° 0 mm 1 mps 697 mmHg 44%
    09:00 +29°C° 0 mm 1 mps 698 mmHg 38%
    10:00 +30°C° 0 mm 1 mps 698 mmHg 32%
    11:00 +31°C° 0 mm 1 mps 698 mmHg 29%
    12:00 +32°C° 0 mm 1 mps 697 mmHg 26%
    13:00 +34°C° 0 mm 2 mps 697 mmHg 23%
    14:00 +34°C° 0 mm 2 mps 697 mmHg 23%
    15:00 +34°C° 0 mm 2 mps 696 mmHg 23%
    16:00 +34°C° 0 mm 2 mps 696 mmHg 24%
    17:00 +32°C° 0 mm 2 mps 696 mmHg 26%
    18:00 +31°C° 0 mm 2 mps 696 mmHg 27%
    19:00 +31°C° 0 mm 2 mps 696 mmHg 29%
    20:00 +30°C° 0 mm 2 mps 696 mmHg 30%
    21:00 +30°C° 0 mm 3 mps 697 mmHg 31%
    22:00 +29°C° 0 mm 4 mps 697 mmHg 33%
    23:00 +28°C° 0 mm 3 mps 697 mmHg 37%

    Day after tomorrow, 18 October, Thursday

    Time Temperature Precipitation Wind Pressure Humidity
    00:00 +27°C° 0 mm 3 mps 696 mmHg 41%
    01:00 +27°C° 0 mm 2 mps 696 mmHg 44%
    02:00 +26°C° 0 mm 2 mps 696 mmHg 46%
    03:00 +26°C° 0 mm 2 mps 696 mmHg 47%
    04:00 +26°C° 0 mm 1 mps 696 mmHg 49%
    05:00 +26°C° 0 mm 1 mps 696 mmHg 48%
    06:00 +26°C° 0 mm 1 mps 696 mmHg 47%
    07:00 +26°C° 0 mm 1 mps 697 mmHg 46%
    08:00 +27°C° 0 mm 1 mps 697 mmHg 43%
    09:00 +28°C° 0 mm 1 mps 697 mmHg 39%
    10:00 +27°C° 0 mm 0 mps 698 mmHg 35%
    11:00 +30°C° 0 mm 1 mps 697 mmHg 32%
    12:00 +32°C° 0 mm 1 mps 697 mmHg 29%
    13:00 +33°C° 0 mm 1 mps 696 mmHg 25%
    14:00 +34°C° 0 mm 2 mps 696 mmHg 25%
    15:00 +34°C° 0 mm 2 mps 696 mmHg 24%
    16:00 +34°C° 0 mm 2 mps 696 mmHg 24%
    17:00 +32°C° 0 mm 2 mps 696 mmHg 26%
    18:00 +31°C° 0 mm 2 mps 696 mmHg 28%
    19:00 +31°C° 0 mm 1 mps 696 mmHg 30%
    20:00 +30°C° 0.1 mm 2 mps 697 mmHg 33%
    21:00 +29°C° 0.1 mm 2 mps 697 mmHg 35%
    22:00 +28°C° 0.1 mm 3 mps 697 mmHg 38%
    23:00 +28°C° 0 mm 3 mps 697 mmHg 41%

    19 October, Friday

    Time Temperature Precipitation Wind Pressure Humidity
    00:00 +27°C° 0 mm 2 mps 696 mmHg 43%
    01:00 +26°C° 0 mm 2 mps 696 mmHg 46%
    02:00 +25°C° 0 mm 1 mps 696 mmHg 47%
    03:00 +25°C° 0 mm 1 mps 696 mmHg 48%
    04:00 +25°C° 0 mm 1 mps 695 mmHg 48%
    05:00 +25°C° 0 mm 1 mps 696 mmHg 46%
    06:00 +25°C° 0 mm 1 mps 696 mmHg 44%
    07:00 +24°C° 0 mm 0 mps 697 mmHg 42%
    08:00 +27°C° 0 mm 1 mps 697 mmHg 36%
    09:00 +29°C° 0 mm 1 mps 698 mmHg 31%
    10:00 +30°C° 0 mm 1 mps 698 mmHg 26%
    11:00 +31°C° 0 mm 1 mps 698 mmHg 25%
    12:00 +32°C° 0 mm 1 mps 697 mmHg 24%
    13:00 +34°C° 0 mm 2 mps 697 mmHg 22%
    14:00 +34°C° 0 mm 2 mps 697 mmHg 23%
    15:00 +32°C° 0 mm 1 mps 696 mmHg 24%
    16:00 +32°C° 0 mm 1 mps 696 mmHg 24%
    17:00 +32°C° 0 mm 1 mps 696 mmHg 26%
    18:00 +31°C° 0 mm 2 mps 697 mmHg 28%
    19:00 +30°C° 0 mm 2 mps 697 mmHg 30%
    20:00 +30°C° 0 mm 2 mps 697 mmHg 32%
    21:00 +29°C° 0 mm 3 mps 698 mmHg 34%
    22:00 +28°C° 0 mm 3 mps 698 mmHg 36%
    23:00 +27°C° 0 mm 3 mps 697 mmHg 38%

    20 October, Saturday

    Time Temperature Precipitation Wind Pressure Humidity
    00:00 +26°C° 0 mm 2 mps 697 mmHg 41%
    01:00 +25°C° 0 mm 1 mps 697 mmHg 43%
    02:00 +25°C° 0 mm 1 mps 697 mmHg 44%
    03:00 +25°C° 0 mm 1 mps 696 mmHg 44%
    04:00 +22°C° 0 mm 0 mps 696 mmHg 45%
    05:00 +23°C° 0 mm 0 mps 697 mmHg 43%
    06:00 +23°C° 0 mm 0 mps 697 mmHg 41%
    07:00 +24°C° 0 mm 0 mps 698 mmHg 39%
    08:00 +25°C° 0 mm 0 mps 699 mmHg 35%
    09:00 +29°C° 0 mm 1 mps 699 mmHg 31%
    10:00 +30°C° 0 mm 1 mps 699 mmHg 27%
    11:00 +31°C° 0 mm 1 mps 699 mmHg 26%
    12:00 +32°C° 0 mm 1 mps 698 mmHg 25%
    13:00 +32°C° 0 mm 1 mps 698 mmHg 25%
    14:00 +32°C° 0.1 mm 2 mps 697 mmHg 26%
    15:00 +32°C° 0.1 mm 2 mps 697 mmHg 27%
    16:00 +32°C° 0.1 mm 2 mps 697 mmHg 29%
    17:00 +31°C° 0 mm 2 mps 697 mmHg 31%
    18:00 +30°C° 0 mm 2 mps 698 mmHg 34%
    19:00 +29°C° 0 mm 2 mps 698 mmHg 37%
    20:00 +29°C° 0 mm 2 mps 698 mmHg 39%
    21:00 +28°C° 0 mm 3 mps 698 mmHg 41%
    22:00 +27°C° 0 mm 3 mps 698 mmHg 43%
    23:00 +27°C° 0 mm 2 mps 698 mmHg 45%

    21 October, Sunday

    Time Temperature Precipitation Wind Pressure Humidity
    00:00 +26°C° 0 mm 1 mps 697 mmHg 47%
    01:00 +25°C° 0 mm 1 mps 697 mmHg 49%
    02:00 +25°C° 0 mm 1 mps 697 mmHg 50%
    03:00 +22°C° 0 mm 0 mps 697 mmHg 51%
    04:00 +22°C° 0 mm 0 mps 697 mmHg 52%
    05:00 +22°C° 0 mm 0 mps 697 mmHg 50%
    06:00 +23°C° 0 mm 0 mps 698 mmHg 48%
    07:00 +23°C° 0 mm 0 mps 698 mmHg 46%
    08:00 +25°C° 0 mm 0 mps 699 mmHg 41%
    09:00 +28°C° 0 mm 1 mps 699 mmHg 36%
    10:00 +30°C° 0 mm 1 mps 699 mmHg 31%
    11:00 +31°C° 0 mm 1 mps 699 mmHg 29%
    12:00 +32°C° 0 mm 1 mps 698 mmHg 26%
    13:00 +33°C° 0 mm 1 mps 698 mmHg 24%
    14:00 +33°C° 0 mm 1 mps 698 mmHg 24%
    15:00 +34°C° 0 mm 2 mps 698 mmHg 24%
    16:00 +32°C° 0 mm 2 mps 697 mmHg 24%
    17:00 +32°C° 0 mm 2 mps 698 mmHg 26%
    18:00 +31°C° 0 mm 2 mps 698 mmHg 27%
    19:00 +30°C° 0 mm 2 mps 698 mmHg 28%
    20:00 +30°C° 0 mm 2 mps 698 mmHg 29%
    21:00 +29°C° 0 mm 2 mps 698 mmHg 31%
    22:00 +28°C° 0 mm 3 mps 699 mmHg 32%
    23:00 +27°C° 0 mm 2 mps 698 mmHg 34%
    Show more